Weather History for Fort Yukon, AK

Change the Weather History Date:

Tuesday, November 5, 2013

  Actual Average Record
Temperature  
Mean Temperature 12 °F -  
Max Temperature 17 °F 7 °F 23 °F (2003)
Min Temperature 8 °F -2 °F -38 °F (1999)
Degree Days  
Heating Degree Days 52    
Moisture  
Dew Point 11 °F    
Average Humidity 86    
Maximum Humidity 93    
Minimum Humidity 79    
Precipitation  
Precipitation 0.00 in - - ()
Sea Level Pressure  
Sea Level Pressure 29.81 in    
Wind  
Wind Speed 0 mph (SSE)    
Max Wind Speed 4 mph    
Max Gust Speed -    
Visibility 5 miles    
Events Snow    
Averages and records for this station are not official NWS values.
T = Trace of Precipitation, MM = Missing Value Source: NWS Daily Summary

Daily Weather History Graph

Daily Weather History Graph

Search for Another Location

Airport:

Trip Planner

Search our weather history database for the weather conditions in past years. The results will help you decide how hot, cold, wet, or windy it might be!

Date:

Astronomy

Nov. 05, 2013 Rise Set
Actual Time 8:57 AM AKST 3:50 PM AKST
Civil Twilight 7:54 AM AKST 4:53 PM AKST
Nautical Twilight 6:50 AM AKST 5:57 PM AKST
Astronomical Twilight 5:49 AM AKST 6:58 PM AKST
Moon 12:16 PM AKST (11/5) 5:06 PM AKST (11/5)
Length of Visible Light 8h 58m
Length of Day
6h 53m
Waxing Crescent, 7% of the Moon is Illuminated
Nov 5
Waxing Crescent
Nov 9
First Quarter
Nov 17
Full
Nov 25
Last Quarter
Dec 2
New

Hourly Weather History & Observations

Time (AKST) Temp. Windchill Dew Point Humidity Pressure Visibility Wind Dir Wind Speed Gust Speed Precip Events Conditions
12:56 AM 8.6 °F - 5.0 °F 85% 29.56 in 7.0 mi Calm Calm - N/A   Overcast
1:16 AM 8.6 °F - 6.8 °F 92% 29.57 in 9.0 mi Calm Calm - N/A   Overcast
1:36 AM 10.4 °F - 6.8 °F 85% 29.57 in 5.0 mi Calm Calm - N/A   Overcast
2:16 AM 10.4 °F - 6.8 °F 85% 29.57 in 7.0 mi Calm Calm - N/A   Overcast
2:36 AM 10.4 °F - 6.8 °F 85% 29.57 in 5.0 mi Calm Calm - N/A   Overcast
2:56 AM 10.4 °F - 5.0 °F 79% 29.57 in 4.0 mi Calm Calm - N/A   Overcast
3:16 AM 8.6 °F - 5.0 °F 85% 29.58 in 3.0 mi Calm Calm - N/A   Overcast
3:36 AM 10.4 °F - 6.8 °F 85% 29.59 in 3.0 mi Calm Calm - N/A   Overcast
3:56 AM 10.4 °F - 6.8 °F 85% 29.59 in 5.0 mi Calm Calm - N/A   Overcast
5:16 AM 12.2 °F - 8.6 °F 85% 29.60 in 10.0 mi Calm Calm - N/A   Overcast
6:16 AM 12.2 °F - 8.6 °F 85% 29.62 in 10.0 mi Calm Calm - N/A   Overcast
6:36 AM 12.2 °F - 8.6 °F 85% 29.63 in 10.0 mi Calm Calm - N/A   Overcast
6:56 AM 12.2 °F - 8.6 °F 85% 29.64 in 10.0 mi Calm Calm - N/A   Overcast
7:14 AM 12.2 °F 6.1 °F 8.6 °F 85% 29.65 in 9.0 mi South 3.5 mph - N/A Snow Light Snow
7:36 AM 12.2 °F - 8.6 °F 85% 29.65 in 4.0 mi Calm Calm - N/A   Overcast
7:56 AM 12.2 °F - 8.6 °F 85% 29.66 in 4.0 mi Calm Calm - N/A   Overcast
8:36 AM 12.2 °F - 10.4 °F 92% 29.68 in 2.5 mi Calm Calm - N/A   Overcast
8:56 AM 12.2 °F - 10.4 °F 92% 29.68 in 1.8 mi Calm Calm - N/A   Overcast
9:16 AM 12.2 °F - 10.4 °F 92% 29.70 in 2.5 mi Calm Calm - N/A   Overcast
9:36 AM 14.0 °F - 10.4 °F 86% 29.70 in 1.8 mi Calm Calm - N/A   Overcast
9:47 AM 14.0 °F 8.2 °F 10.4 °F 86% 29.70 in 3.0 mi South 3.5 mph - N/A Snow Light Snow
9:56 AM 14.0 °F - 10.4 °F 86% 29.71 in 3.0 mi Calm Calm - N/A   Overcast
10:16 AM 14.0 °F - 10.4 °F 86% 29.71 in 3.0 mi Calm Calm - N/A   Overcast
10:36 AM 14.0 °F - 10.4 °F 86% 29.72 in 3.0 mi Calm Calm - N/A   Overcast
10:56 AM 15.8 °F - 12.2 °F 86% 29.73 in 1.5 mi Calm Calm - N/A   Overcast
11:16 AM 15.8 °F - 12.2 °F 86% 29.74 in 1.2 mi Calm Calm - N/A   Overcast
11:36 AM 15.8 °F - 12.2 °F 86% 29.75 in 1.0 mi Calm Calm - N/A   Overcast
11:50 AM 15.8 °F 10.2 °F 12.2 °F 86% 29.76 in 3.0 mi SE 3.5 mph - N/A Snow Light Snow
11:56 AM 15.8 °F - 12.2 °F 86% 29.76 in 3.0 mi Calm Calm - N/A   Overcast
12:16 PM 15.8 °F - 12.2 °F 86% 29.77 in 3.0 mi Calm Calm - N/A   Overcast
12:56 PM 17.6 °F - 14.0 °F 86% 29.78 in 1.0 mi Calm Calm - N/A   Overcast
1:36 PM 17.6 °F - 14.0 °F 86% 29.79 in 8.0 mi Calm Calm - N/A   Overcast
1:56 PM 17.6 °F - 15.8 °F 93% 29.81 in 2.5 mi Calm Calm - N/A   Overcast
2:16 PM 17.6 °F - 15.8 °F 93% 29.81 in 5.0 mi Calm Calm - N/A   Overcast
2:36 PM 17.6 °F - 15.8 °F 93% 29.82 in 3.0 mi Calm Calm - N/A   Overcast
2:56 PM 17.6 °F - 15.8 °F 93% 29.83 in 2.5 mi Calm Calm - N/A   Overcast
3:16 PM 17.6 °F - 15.8 °F 93% 29.84 in 3.0 mi Calm Calm - N/A   Overcast
3:36 PM 17.6 °F - 15.8 °F 93% 29.85 in 3.0 mi Calm Calm - N/A   Overcast
3:56 PM 17.6 °F - 15.8 °F 93% 29.87 in 3.0 mi Calm Calm - N/A   Overcast
4:16 PM 17.6 °F - 15.8 °F 93% 29.87 in 1.2 mi Calm Calm - N/A   Overcast
4:36 PM 17.6 °F - 15.8 °F 93% 29.88 in 2.5 mi Calm Calm - N/A   Overcast
4:56 PM 17.6 °F - 15.8 °F 93% 29.90 in 2.5 mi Calm Calm - N/A   Overcast
5:16 PM 17.6 °F - 14.0 °F 86% 29.91 in 2.0 mi Calm Calm - N/A   Overcast
5:36 PM 17.6 °F - 14.0 °F 86% 29.93 in 2.5 mi Calm Calm - N/A   Overcast
5:56 PM 17.6 °F - 14.0 °F 86% 29.94 in 3.0 mi Calm Calm - N/A   Overcast
6:16 PM 17.6 °F - 14.0 °F 86% 29.95 in 3.0 mi Calm Calm - N/A   Overcast
6:36 PM 17.6 °F - 14.0 °F 86% 29.96 in 3.0 mi Calm Calm - N/A   Overcast
6:56 PM 17.6 °F - 12.2 °F 79% 29.97 in 2.5 mi Calm Calm - N/A   Overcast
7:16 PM 17.6 °F - 12.2 °F 79% 29.98 in 2.5 mi Calm Calm - N/A   Overcast
7:36 PM 15.8 °F - 12.2 °F 86% 29.99 in 3.0 mi Calm Calm - N/A   Overcast
7:56 PM 15.8 °F - 10.4 °F 79% 30.01 in 4.0 mi Calm Calm - N/A   Overcast
8:16 PM 15.8 °F - 10.4 °F 79% 30.02 in 8.0 mi Calm Calm - N/A   Overcast
8:36 PM 12.2 °F - 8.6 °F 85% 30.03 in 10.0 mi Calm Calm - N/A   Scattered Clouds
9:36 PM 8.6 °F - 3.2 °F 79% 30.06 in 10.0 mi Calm Calm - N/A   Mostly Cloudy
9:56 PM 8.6 °F - 3.2 °F 79% 30.07 in 10.0 mi Calm Calm - N/A   Overcast
10:16 PM 8.6 °F - 3.2 °F 79% 30.08 in 10.0 mi Calm Calm - N/A   Overcast
10:36 PM 10.4 °F - 6.8 °F 85% 30.10 in 10.0 mi Calm Calm - N/A   Overcast
10:56 PM 12.2 °F - 8.6 °F 85% 30.11 in 10.0 mi Calm Calm - N/A   Overcast
11:16 PM 12.2 °F - 8.6 °F 85% 30.12 in 10.0 mi Calm Calm - N/A   Overcast
11:36 PM 12.2 °F - 8.6 °F 85% 30.13 in 10.0 mi Calm Calm - N/A   Overcast
11:56 PM 12.2 °F - 8.6 °F 85% 30.14 in 10.0 mi Calm Calm - N/A   Overcast